Time,TemperatureF,DewpointF,PressureIn,WindDirection,WindDirectionDegrees,WindSpeedMPH,WindSpeedGustMPH,Humidity,HourlyPrecipIn,Conditions,Clouds,dailyrainin,SoftwareType,DateUTC
2013-01-25 00:01:00,22.3,-2.5,30.48,NW,315,0.0,0.0,33,0.00,CLR,,0.00,WeatherDisplay:10.37,2013-01-25 05:01:00,
2013-01-25 00:02:00,22.5,-2.4,30.48,NW,315,0.0,0.0,33,0.00,CLR,,0.00,WeatherDisplay:10.37,2013-01-25 05:02:00,
2013-01-25 00:07:00,22.3,-2.5,30.48,NW,315,0.0,0.0,33,0.00,CLR,,0.00,WeatherDisplay:10.37,2013-01-25 05:07:00,
2013-01-25 00:12:00,22.3,-2.5,30.48,NW,315,0.0,0.0,33,0.00,CLR,,0.00,WeatherDisplay:10.37,2013-01-25 05:12:00,
2013-01-25 00:17:00,22.1,-2.7,30.48,NW,315,0.0,0.0,33,0.00,CLR,,0.00,WeatherDisplay:10.37,2013-01-25 05:17:00,
2013-01-25 00:22:00,22.3,-1.9,30.48,NW,315,0.0,0.0,34,0.00,CLR,,0.00,WeatherDisplay:10.37,2013-01-25 05:22:00,
2013-01-25 00:27:00,22.3,-1.9,30.44,NW,315,0.0,0.0,34,0.00,CLR,,0.00,WeatherDisplay:10.37,2013-01-25 05:27:00,
2013-01-25 00:32:00,22.3,-1.3,30.44,NW,315,0.0,0.0,35,0.00,CLR,,0.00,WeatherDisplay:10.37,2013-01-25 05:32:00,
2013-01-25 00:37:00,22.5,-1.7,30.44,NW,315,0.0,0.0,34,0.00,CLR,,0.00,WeatherDisplay:10.37,2013-01-25 05:37:00,
2013-01-25 00:42:00,22.5,-1.7,30.44,NW,315,0.0,0.0,34,0.00,CLR,,0.00,WeatherDisplay:10.37,2013-01-25 05:42:00,
2013-01-25 00:47:00,22.5,-1.7,30.44,NW,315,0.0,0.0,34,0.00,CLR,,0.00,WeatherDisplay:10.37,2013-01-25 05:47:00,
2013-01-25 00:52:00,22.5,-2.4,30.44,NW,315,0.0,0.0,33,0.00,CLR,,0.00,WeatherDisplay:10.37,2013-01-25 05:52:00,
2013-01-25 00:57:00,22.6,-2.2,30.44,NW,315,0.0,0.0,33,0.00,CLR,,0.00,WeatherDisplay:10.37,2013-01-25 05:57:00,
2013-01-25 01:02:00,22.6,-2.2,30.44,NW,315,0.0,0.0,33,0.00,CLR,,0.00,WeatherDisplay:10.37,2013-01-25 06:02:00,
2013-01-25 01:07:00,22.5,-2.4,30.44,NW,315,0.0,0.0,33,0.00,CLR,,0.00,WeatherDisplay:10.37,2013-01-25 06:07:00,
2013-01-25 01:12:00,22.5,-2.4,30.48,NW,315,0.0,0.0,33,0.00,CLR,,0.00,WeatherDisplay:10.37,2013-01-25 06:12:00,
2013-01-25 01:17:00,22.3,-2.5,30.48,NW,315,0.0,0.0,33,0.00,CLR,,0.00,WeatherDisplay:10.37,2013-01-25 06:17:00,
2013-01-25 01:22:00,22.3,-2.5,30.48,NW,315,0.0,0.0,33,0.00,CLR,,0.00,WeatherDisplay:10.37,2013-01-25 06:22:00,
2013-01-25 01:27:00,22.3,-2.5,30.48,NW,315,0.0,0.0,33,0.00,CLR,,0.00,WeatherDisplay:10.37,2013-01-25 06:27:00,
2013-01-25 01:32:00,22.3,-1.9,30.48,NW,315,0.0,0.0,34,0.00,CLR,,0.00,WeatherDisplay:10.37,2013-01-25 06:32:00,
2013-01-25 01:37:00,22.1,-2.0,30.48,NW,315,0.0,0.0,34,0.00,CLR,,0.00,WeatherDisplay:10.37,2013-01-25 06:37:00,
2013-01-25 01:42:00,21.9,-2.2,30.48,NW,315,0.0,0.0,34,0.00,CLR,,0.00,WeatherDisplay:10.37,2013-01-25 06:42:00,
2013-01-25 01:47:00,21.9,-2.2,30.48,NW,315,0.0,0.0,34,0.00,CLR,,0.00,WeatherDisplay:10.37,2013-01-25 06:47:00,
2013-01-25 01:52:00,21.9,-2.2,30.48,NW,315,0.0,0.0,34,0.00,CLR,,0.00,WeatherDisplay:10.37,2013-01-25 06:52:00,
2013-01-25 01:57:00,21.7,-3.0,30.48,NW,315,0.0,0.0,33,0.00,CLR,,0.00,WeatherDisplay:10.37,2013-01-25 06:57:00,
2013-01-25 02:02:00,21.6,-3.2,30.48,NW,315,0.0,0.0,33,0.00,CLR,,0.00,WeatherDisplay:10.37,2013-01-25 07:02:00,
2013-01-25 02:07:00,21.6,-2.5,30.48,NW,315,0.0,0.0,34,0.00,CLR,,0.00,WeatherDisplay:10.37,2013-01-25 07:07:00,
2013-01-25 02:12:00,21.4,-2.7,30.48,NW,315,0.0,0.0,34,0.00,CLR,,0.00,WeatherDisplay:10.37,2013-01-25 07:12:00,
2013-01-25 02:17:00,21.2,-2.9,30.48,NW,315,0.0,0.0,34,0.00,CLR,,0.00,WeatherDisplay:10.37,2013-01-25 07:17:00,
2013-01-25 02:22:00,21.0,-3.0,30.48,NW,315,0.0,0.0,34,0.00,CLR,,0.00,WeatherDisplay:10.37,2013-01-25 07:22:00,
2013-01-25 02:27:00,20.8,-2.6,30.48,NW,315,0.0,0.0,35,0.00,CLR,,0.00,WeatherDisplay:10.37,2013-01-25 07:27:00,
2013-01-25 02:32:00,20.7,-2.7,30.48,NW,315,0.0,0.0,35,0.00,CLR,,0.00,WeatherDisplay:10.37,2013-01-25 07:32:00,
2013-01-25 02:37:00,20.5,-2.9,30.48,NW,315,0.0,0.0,35,0.00,CLR,,0.00,WeatherDisplay:10.37,2013-01-25 07:37:00,
2013-01-25 02:42:00,20.5,-2.9,30.48,NW,315,0.0,0.0,35,0.00,CLR,,0.00,WeatherDisplay:10.37,2013-01-25 07:42:00,
2013-01-25 02:47:00,20.3,-2.5,30.48,NW,315,0.0,0.0,36,0.00,CLR,,0.00,WeatherDisplay:10.37,2013-01-25 07:47:00,
2013-01-25 02:52:00,20.3,-2.5,30.48,NW,315,0.0,0.0,36,0.00,CLR,,0.00,WeatherDisplay:10.37,2013-01-25 07:52:00,
2013-01-25 02:57:00,20.1,-2.6,30.48,NW,315,0.0,0.0,36,0.00,CLR,,0.00,WeatherDisplay:10.37,2013-01-25 07:57:00,
2013-01-25 03:02:00,20.1,-2.6,30.48,NW,315,0.0,0.0,36,0.00,CLR,,0.00,WeatherDisplay:10.37,2013-01-25 08:02:00,
2013-01-25 03:07:00,20.1,-2.0,30.48,NW,315,0.0,0.0,37,0.00,CLR,,0.00,WeatherDisplay:10.37,2013-01-25 08:07:00,
2013-01-25 03:12:00,19.9,-1.6,30.48,NW,315,0.0,0.0,38,0.00,CLR,,0.00,WeatherDisplay:10.37,2013-01-25 08:12:00,
2013-01-25 03:17:00,19.9,-0.5,30.48,NW,315,0.0,0.0,40,0.00,CLR,,0.00,WeatherDisplay:10.37,2013-01-25 08:17:00,
2013-01-25 03:22:00,19.9,0.0,30.48,NW,315,0.0,0.0,41,0.00,CLR,,0.00,WeatherDisplay:10.37,2013-01-25 08:22:00,
2013-01-25 03:27:00,20.1,0.1,30.48,NW,315,0.0,0.0,41,0.00,CLR,,0.00,WeatherDisplay:10.37,2013-01-25 08:27:00,
2013-01-25 03:32:00,20.1,0.7,30.48,NW,315,0.0,0.0,42,0.00,CLR,,0.00,WeatherDisplay:10.37,2013-01-25 08:32:00,
2013-01-25 03:37:00,20.1,1.2,30.48,NW,315,0.0,0.0,43,0.00,CLR,,0.00,WeatherDisplay:10.37,2013-01-25 08:37:00,
2013-01-25 03:43:00,20.1,0.7,30.48,NW,315,0.0,0.0,42,0.00,CLR,,0.00,WeatherDisplay:10.37,2013-01-25 08:43:00,
2013-01-25 03:48:00,20.1,1.2,30.48,NW,315,0.0,0.0,43,0.00,CLR,,0.00,WeatherDisplay:10.37,2013-01-25 08:48:00,
2013-01-25 03:53:00,20.1,1.2,30.48,NW,315,0.0,0.0,43,0.00,CLR,,0.00,WeatherDisplay:10.37,2013-01-25 08:53:00,
2013-01-25 03:58:00,19.9,1.0,30.44,NW,315,0.0,0.0,43,0.00,CLR,,0.00,WeatherDisplay:10.37,2013-01-25 08:58:00,
2013-01-25 04:03:00,19.9,1.0,30.44,NW,315,0.0,0.0,43,0.00,CLR,,0.00,WeatherDisplay:10.37,2013-01-25 09:03:00,
2013-01-25 04:08:00,19.8,1.3,30.44,NW,315,0.0,0.0,44,0.00,CLR,,0.00,WeatherDisplay:10.37,2013-01-25 09:08:00,
2013-01-25 04:13:00,19.9,1.5,30.44,NW,315,0.0,0.0,44,0.00,CLR,,0.00,WeatherDisplay:10.37,2013-01-25 09:13:00,
2013-01-25 04:18:00,19.9,1.5,30.44,NW,315,0.0,0.0,44,0.00,CLR,,0.00,WeatherDisplay:10.37,2013-01-25 09:18:00,
2013-01-25 04:23:00,19.9,2.0,30.44,NW,315,0.0,0.0,45,0.00,CLR,,0.00,WeatherDisplay:10.37,2013-01-25 09:23:00,
2013-01-25 04:28:00,20.1,2.1,30.44,NW,315,0.0,0.0,45,0.00,CLR,,0.00,WeatherDisplay:10.37,2013-01-25 09:28:00,
2013-01-25 04:33:00,20.1,2.1,30.44,NW,315,0.0,0.0,45,0.00,CLR,,0.00,WeatherDisplay:10.37,2013-01-25 09:33:00,
2013-01-25 04:38:00,20.1,2.1,30.44,NW,315,0.0,0.0,45,0.00,CLR,,0.00,WeatherDisplay:10.37,2013-01-25 09:38:00,
2013-01-25 04:43:00,20.3,2.3,30.44,NW,315,0.0,0.0,45,0.00,CLR,,0.00,WeatherDisplay:10.37,2013-01-25 09:43:00,
2013-01-25 04:48:00,20.3,2.3,30.44,NW,315,0.0,0.0,45,0.00,CLR,,0.00,WeatherDisplay:10.37,2013-01-25 09:48:00,
2013-01-25 04:53:00,20.3,2.3,30.44,NW,315,0.0,0.0,45,0.00,CLR,,0.00,WeatherDisplay:10.37,2013-01-25 09:53:00,
2013-01-25 04:58:00,20.3,2.8,30.44,NW,315,0.0,0.0,46,0.00,CLR,,0.00,WeatherDisplay:10.37,2013-01-25 09:58:00,
2013-01-25 05:03:00,20.3,2.8,30.44,NW,315,0.0,0.0,46,0.00,CLR,,0.00,WeatherDisplay:10.37,2013-01-25 10:03:00,
2013-01-25 05:08:00,20.5,3.4,30.44,NW,315,0.0,0.0,47,0.00,CLR,,0.00,WeatherDisplay:10.37,2013-01-25 10:08:00,
2013-01-25 05:13:00,20.5,2.9,30.48,NW,315,0.0,0.0,46,0.00,CLR,,0.00,WeatherDisplay:10.37,2013-01-25 10:13:00,
2013-01-25 05:18:00,20.5,2.9,30.48,NW,315,0.0,0.0,46,0.00,CLR,,0.00,WeatherDisplay:10.37,2013-01-25 10:18:00,
2013-01-25 05:23:00,20.5,2.9,30.48,NW,315,0.0,0.0,46,0.00,CLR,,0.00,WeatherDisplay:10.37,2013-01-25 10:23:00,
2013-01-25 05:28:00,20.5,2.9,30.44,NW,315,0.0,0.0,46,0.00,CLR,,0.00,WeatherDisplay:10.37,2013-01-25 10:28:00,
2013-01-25 05:33:00,20.7,3.1,30.44,NW,315,0.0,0.0,46,0.00,CLR,,0.00,WeatherDisplay:10.37,2013-01-25 10:33:00,
2013-01-25 05:38:00,20.7,3.1,30.44,NW,315,0.0,0.0,46,0.00,CLR,,0.00,WeatherDisplay:10.37,2013-01-25 10:38:00,
2013-01-25 05:43:00,20.7,3.1,30.44,NW,315,0.0,0.0,46,0.00,CLR,,0.00,WeatherDisplay:10.37,2013-01-25 10:43:00,
2013-01-25 05:48:00,20.7,3.1,30.44,NW,315,0.0,0.0,46,0.00,CLR,,0.00,WeatherDisplay:10.37,2013-01-25 10:48:00,
2013-01-25 05:53:00,20.8,3.3,30.44,NW,315,0.0,0.0,46,0.00,CLR,,0.00,WeatherDisplay:10.37,2013-01-25 10:53:00,
2013-01-25 05:58:00,20.8,3.3,30.44,NW,315,0.0,0.0,46,0.00,CLR,,0.00,WeatherDisplay:10.37,2013-01-25 10:58:00,
2013-01-25 06:03:00,20.8,3.3,30.44,NW,315,0.0,0.0,46,0.00,CLR,,0.00,WeatherDisplay:10.37,2013-01-25 11:03:00,
2013-01-25 06:08:00,21.0,3.4,30.44,NW,315,0.0,0.0,46,0.00,CLR,,0.00,WeatherDisplay:10.37,2013-01-25 11:08:00,
2013-01-25 06:13:00,21.0,3.4,30.44,NW,315,0.0,0.0,46,0.00,CLR,,0.00,WeatherDisplay:10.37,2013-01-25 11:13:00,
2013-01-25 06:18:00,21.2,3.6,30.44,NW,315,0.0,0.0,46,0.00,CLR,,0.00,WeatherDisplay:10.37,2013-01-25 11:18:00,
2013-01-25 06:23:00,21.2,3.6,30.44,NW,315,0.0,0.0,46,0.00,CLR,,0.00,WeatherDisplay:10.37,2013-01-25 11:23:00,
2013-01-25 06:28:00,21.2,3.6,30.44,NW,315,0.0,0.0,46,0.00,CLR,,0.00,WeatherDisplay:10.37,2013-01-25 11:28:00,
2013-01-25 06:33:00,21.2,3.6,30.44,NW,315,0.0,0.0,46,0.00,CLR,,0.00,WeatherDisplay:10.37,2013-01-25 11:33:00,
2013-01-25 06:38:00,21.2,3.6,30.44,NW,315,0.0,0.0,46,0.00,CLR,,0.00,WeatherDisplay:10.37,2013-01-25 11:38:00,
2013-01-25 06:43:00,21.4,3.8,30.48,NW,315,0.0,0.0,46,0.00,CLR,,0.00,WeatherDisplay:10.37,2013-01-25 11:43:00,
2013-01-25 06:48:00,21.4,3.8,30.48,NW,315,0.0,0.0,46,0.00,CLR,,0.00,WeatherDisplay:10.37,2013-01-25 11:48:00,
2013-01-25 06:53:00,21.6,3.9,30.48,NW,315,0.0,0.0,46,0.00,CLR,,0.00,WeatherDisplay:10.37,2013-01-25 11:53:00,
2013-01-25 06:58:00,21.7,4.6,30.48,NW,315,0.0,0.0,47,0.00,CLR,,0.00,WeatherDisplay:10.37,2013-01-25 11:58:00,
2013-01-25 07:03:00,21.7,4.6,30.48,NW,315,0.0,0.0,47,0.00,CLR,,0.00,WeatherDisplay:10.37,2013-01-25 12:03:00,
2013-01-25 07:08:00,21.7,4.6,30.48,NW,315,0.0,0.0,47,0.00,CLR,,0.00,WeatherDisplay:10.37,2013-01-25 12:08:00,
2013-01-25 07:13:00,21.7,5.0,30.44,NW,315,0.0,0.0,48,0.00,CLR,,0.00,WeatherDisplay:10.37,2013-01-25 12:13:00,
2013-01-25 07:18:00,21.7,5.0,30.44,NW,315,0.0,0.0,48,0.00,CLR,,0.00,WeatherDisplay:10.37,2013-01-25 12:18:00,
2013-01-25 07:23:00,21.9,5.2,30.44,NW,315,0.0,0.0,48,0.00,CLR,,0.00,WeatherDisplay:10.37,2013-01-25 12:23:00,
2013-01-25 07:28:00,21.7,5.0,30.44,NW,315,0.0,0.0,48,0.00,CLR,,0.00,WeatherDisplay:10.37,2013-01-25 12:28:00,
2013-01-25 07:33:00,21.9,5.7,30.44,NW,315,0.0,0.0,49,0.00,CLR,,0.00,WeatherDisplay:10.37,2013-01-25 12:33:00,
2013-01-25 07:38:00,21.9,5.7,30.44,NW,315,0.0,0.0,49,0.00,CLR,,0.00,WeatherDisplay:10.37,2013-01-25 12:38:00,
2013-01-25 07:43:00,21.9,5.7,30.44,NW,315,0.0,0.0,49,0.00,CLR,,0.00,WeatherDisplay:10.37,2013-01-25 12:43:00,
2013-01-25 07:48:00,21.9,5.2,30.44,NW,315,0.0,0.0,48,0.00,CLR,,0.00,WeatherDisplay:10.37,2013-01-25 12:48:00,
2013-01-25 07:53:00,22.1,5.4,30.44,NW,315,0.0,0.0,48,0.00,CLR,,0.00,WeatherDisplay:10.37,2013-01-25 12:53:00,
2013-01-25 07:58:00,22.3,5.1,30.42,NW,315,0.0,0.0,47,0.00,CLR,,0.00,WeatherDisplay:10.37,2013-01-25 12:58:00,
2013-01-25 08:03:00,22.5,5.2,30.42,NW,315,0.0,0.0,47,0.00,CLR,,0.00,WeatherDisplay:10.37,2013-01-25 13:03:00,
2013-01-25 08:08:00,22.6,4.9,30.42,NW,315,0.0,0.0,46,0.00,CLR,,0.00,WeatherDisplay:10.37,2013-01-25 13:08:00,
2013-01-25 08:13:00,22.8,4.6,30.42,NW,315,0.0,0.0,45,0.00,CLR,,0.00,WeatherDisplay:10.37,2013-01-25 13:13:00,
2013-01-25 08:18:00,23.2,4.5,30.42,NW,315,0.0,0.0,44,0.00,CLR,,0.00,WeatherDisplay:10.37,2013-01-25 13:18:00,
2013-01-25 08:23:00,23.4,3.6,30.42,NW,315,0.0,0.0,42,0.00,CLR,,0.00,WeatherDisplay:10.37,2013-01-25 13:23:00,
2013-01-25 08:28:00,23.5,2.2,30.42,NW,315,0.0,0.0,39,0.00,CLR,,0.00,WeatherDisplay:10.37,2013-01-25 13:28:00,
2013-01-25 08:33:00,23.7,1.2,30.42,NW,315,0.0,0.0,37,0.00,CLR,,0.00,WeatherDisplay:10.37,2013-01-25 13:33:00,
2013-01-25 08:38:00,24.3,0.5,30.42,NW,315,0.0,0.0,35,0.00,CLR,,0.00,WeatherDisplay:10.37,2013-01-25 13:38:00,
2013-01-25 08:43:00,24.3,-0.1,30.42,NW,315,0.0,0.0,34,0.00,CLR,,0.00,WeatherDisplay:10.37,2013-01-25 13:43:00,
2013-01-25 08:48:00,24.4,-0.6,30.42,NW,315,0.0,0.0,33,0.00,CLR,,0.00,WeatherDisplay:10.37,2013-01-25 13:48:00,
2013-01-25 08:53:00,24.4,-0.6,30.42,NW,315,0.0,0.0,33,0.00,CLR,,0.00,WeatherDisplay:10.37,2013-01-25 13:53:00,
2013-01-25 08:58:00,24.6,-0.4,30.44,NW,315,0.0,0.0,33,0.00,CLR,,0.00,WeatherDisplay:10.37,2013-01-25 13:58:00,
2013-01-25 09:03:00,24.8,-0.3,30.44,NW,315,0.0,0.0,33,0.00,CLR,,0.00,WeatherDisplay:10.37,2013-01-25 14:03:00,
2013-01-25 09:08:00,24.8,-0.3,30.44,NW,315,0.0,0.0,33,0.00,CLR,,0.00,WeatherDisplay:10.37,2013-01-25 14:08:00,
2013-01-25 09:13:00,25.0,-0.8,30.42,NW,315,0.0,0.0,32,0.00,CLR,,0.00,WeatherDisplay:10.37,2013-01-25 14:13:00,
2013-01-25 09:18:00,24.8,-0.9,30.42,NW,315,0.0,0.0,32,0.00,CLR,,0.00,WeatherDisplay:10.37,2013-01-25 14:18:00,
2013-01-25 09:23:00,25.2,-0.6,30.42,NW,315,0.0,0.0,32,0.00,CLR,,0.00,WeatherDisplay:10.37,2013-01-25 14:23:00,
2013-01-25 09:28:00,25.2,-1.3,30.42,NW,315,0.0,0.0,31,0.00,CLR,,0.00,WeatherDisplay:10.37,2013-01-25 14:28:00,
2013-01-25 09:33:00,25.3,-1.1,30.42,NW,315,0.0,0.0,31,0.00,CLR,,0.00,WeatherDisplay:10.37,2013-01-25 14:33:00,
2013-01-25 09:38:00,25.3,-1.1,30.42,NW,315,0.0,0.0,31,0.00,CLR,,0.00,WeatherDisplay:10.37,2013-01-25 14:38:00,
2013-01-25 09:43:00,25.3,-1.1,30.44,NW,315,0.0,0.0,31,0.00,CLR,,0.00,WeatherDisplay:10.37,2013-01-25 14:43:00,
2013-01-25 09:48:00,25.3,-2.5,30.44,NW,315,0.0,0.0,29,0.00,CLR,,0.00,WeatherDisplay:10.37,2013-01-25 14:48:00,
2013-01-25 09:53:00,25.5,-1.0,30.44,NW,315,0.0,0.0,31,0.00,CLR,,0.00,WeatherDisplay:10.37,2013-01-25 14:53:00,
2013-01-25 09:58:00,25.5,-2.4,30.42,NW,315,0.0,0.0,29,0.00,CLR,,0.00,WeatherDisplay:10.37,2013-01-25 14:58:00,
2013-01-25 10:03:00,25.9,-2.1,30.42,NW,315,0.0,0.0,29,0.00,CLR,,0.00,WeatherDisplay:10.37,2013-01-25 15:03:00,
2013-01-25 10:08:00,25.9,-2.1,30.42,NW,315,0.0,0.0,29,0.00,CLR,,0.00,WeatherDisplay:10.37,2013-01-25 15:08:00,
2013-01-25 10:13:00,25.9,-2.1,30.42,NW,315,0.0,0.0,29,0.00,CLR,,0.00,WeatherDisplay:10.37,2013-01-25 15:13:00,
2013-01-25 10:18:00,25.7,-2.2,30.42,NW,315,2.3,0.0,29,0.00,CLR,,0.00,WeatherDisplay:10.37,2013-01-25 15:18:00,
2013-01-25 10:23:00,25.9,-2.1,30.42,NW,315,0.0,0.0,29,0.00,CLR,,0.00,WeatherDisplay:10.37,2013-01-25 15:23:00,
2013-01-25 10:28:00,25.7,-2.2,30.39,NW,315,0.0,0.0,29,0.00,CLR,,0.00,WeatherDisplay:10.37,2013-01-25 15:28:00,
2013-01-25 10:33:00,25.9,-2.1,30.39,NW,315,0.0,0.0,29,0.00,CLR,,0.00,WeatherDisplay:10.37,2013-01-25 15:33:00,
2013-01-25 10:38:00,25.9,-2.1,30.39,NW,315,0.0,0.0,29,0.00,CLR,,0.00,WeatherDisplay:10.37,2013-01-25 15:38:00,
2013-01-25 10:43:00,25.5,-2.4,30.39,NW,315,2.3,0.0,29,0.00,CLR,,0.00,WeatherDisplay:10.37,2013-01-25 15:43:00,
2013-01-25 10:48:00,25.5,-2.4,30.39,NW,315,0.0,0.0,29,0.00,CLR,,0.00,WeatherDisplay:10.37,2013-01-25 15:48:00,
2013-01-25 10:53:00,25.7,-2.2,30.39,NW,315,0.0,0.0,29,0.00,CLR,,0.00,WeatherDisplay:10.37,2013-01-25 15:53:00,
2013-01-25 10:58:00,25.7,-2.2,30.39,NW,315,0.0,0.0,29,0.00,CLR,,0.00,WeatherDisplay:10.37,2013-01-25 15:58:00,
2013-01-25 11:03:00,25.9,-2.1,30.39,NW,315,0.0,0.0,29,0.00,CLR,,0.00,WeatherDisplay:10.37,2013-01-25 16:03:00,
2013-01-25 11:08:00,25.7,-2.2,30.39,NW,315,0.0,0.0,29,0.00,CLR,,0.00,WeatherDisplay:10.37,2013-01-25 16:08:00,
2013-01-25 11:13:00,25.9,-0.7,30.39,NW,315,0.0,0.0,31,0.00,CLR,,0.00,WeatherDisplay:10.37,2013-01-25 16:13:00,
2013-01-25 11:18:00,25.5,-0.3,30.39,NW,315,0.0,0.0,32,0.00,CLR,,0.00,WeatherDisplay:10.37,2013-01-25 16:18:00,
2013-01-25 11:23:00,25.3,-0.5,30.39,NW,315,0.0,0.0,32,0.00,CLR,,0.00,WeatherDisplay:10.37,2013-01-25 16:23:00,
2013-01-25 11:28:00,25.3,-0.5,30.36,NW,315,0.0,0.0,32,0.00,CLR,,0.00,WeatherDisplay:10.37,2013-01-25 16:28:00,
2013-01-25 11:33:00,25.3,0.2,30.36,NW,315,0.0,0.0,33,0.00,CLR,,0.00,WeatherDisplay:10.37,2013-01-25 16:33:00,
2013-01-25 11:38:00,25.3,0.8,30.36,NW,315,0.0,0.0,34,0.00,CLR,,0.00,WeatherDisplay:10.37,2013-01-25 16:38:00,
2013-01-25 11:43:00,25.0,2.3,30.36,NW,315,0.0,0.0,37,0.00,CLR,,0.00,WeatherDisplay:10.37,2013-01-25 16:43:00,
2013-01-25 11:48:00,24.6,4.8,30.36,NW,315,0.0,0.0,42,0.00,CLR,,0.00,WeatherDisplay:10.37,2013-01-25 16:48:00,
2013-01-25 11:53:00,24.4,4.6,30.36,NW,315,0.0,0.0,42,0.00,CLR,,0.00,WeatherDisplay:10.37,2013-01-25 16:53:00,
2013-01-25 11:58:00,24.4,5.6,30.33,NW,315,0.0,0.0,44,0.00,CLR,,0.00,WeatherDisplay:10.37,2013-01-25 16:58:00,
2013-01-25 12:03:00,23.9,5.6,30.33,NW,315,0.0,0.0,45,0.00,CLR,,0.00,WeatherDisplay:10.37,2013-01-25 17:03:00,
2013-01-25 12:08:00,23.7,6.4,30.33,NW,315,0.0,0.0,47,0.00,CLR,,0.00,WeatherDisplay:10.37,2013-01-25 17:08:00,
2013-01-25 12:13:00,23.9,7.5,30.30,NW,315,0.0,0.0,49,0.00,CLR,,0.00,WeatherDisplay:10.37,2013-01-25 17:13:00,
2013-01-25 12:18:00,23.9,8.4,30.30,NW,315,2.3,0.0,51,0.00,CLR,,0.00,WeatherDisplay:10.37,2013-01-25 17:18:00,
2013-01-25 12:23:00,23.9,8.8,30.30,NW,315,0.0,0.0,52,0.00,CLR,,0.00,WeatherDisplay:10.37,2013-01-25 17:23:00,
2013-01-25 12:28:00,24.1,9.0,30.30,NW,315,0.0,0.0,52,0.00,CLR,,0.00,WeatherDisplay:10.37,2013-01-25 17:28:00,
2013-01-25 12:33:00,24.1,9.0,30.30,NW,315,0.0,0.0,52,0.00,CLR,,0.00,WeatherDisplay:10.37,2013-01-25 17:33:00,
2013-01-25 12:38:00,23.5,8.0,30.30,NW,315,0.0,0.0,51,0.00,CLR,,0.00,WeatherDisplay:10.37,2013-01-25 17:38:00,
2013-01-25 12:43:00,23.7,8.2,30.27,NW,315,0.0,0.0,51,0.00,CLR,,0.00,WeatherDisplay:10.37,2013-01-25 17:43:00,
2013-01-25 12:48:00,23.7,7.8,30.27,NW,315,0.0,0.0,50,0.00,CLR,,0.00,WeatherDisplay:10.37,2013-01-25 17:48:00,
2013-01-25 12:53:00,23.9,7.9,30.27,NW,315,0.0,0.0,50,0.00,CLR,,0.00,WeatherDisplay:10.37,2013-01-25 17:53:00,
2013-01-25 12:58:00,23.9,7.9,30.27,NW,315,0.0,0.0,50,0.00,CLR,,0.00,WeatherDisplay:10.37,2013-01-25 17:58:00,
2013-01-25 13:03:00,23.9,7.5,30.27,NW,315,2.3,0.0,49,0.00,CLR,,0.00,WeatherDisplay:10.37,2013-01-25 18:03:00,
2013-01-25 13:08:00,23.9,7.0,30.27,NW,315,0.0,0.0,48,0.00,CLR,,0.00,WeatherDisplay:10.37,2013-01-25 18:08:00,
2013-01-25 13:13:00,24.1,7.7,30.24,NW,315,0.0,0.0,49,0.00,CLR,,0.00,WeatherDisplay:10.37,2013-01-25 18:13:00,
2013-01-25 13:18:00,24.4,8.4,30.24,NW,315,0.0,0.0,50,0.00,CLR,,0.00,WeatherDisplay:10.37,2013-01-25 18:18:00,
2013-01-25 13:23:00,24.3,6.9,30.24,NW,315,0.0,0.0,47,0.00,CLR,,0.00,WeatherDisplay:10.37,2013-01-25 18:23:00,
2013-01-25 13:28:00,24.4,7.5,30.21,NW,315,0.0,0.0,48,0.00,CLR,,0.00,WeatherDisplay:10.37,2013-01-25 18:28:00,
2013-01-25 13:33:00,24.4,7.1,30.21,NW,315,0.0,0.0,47,0.00,CLR,,0.00,WeatherDisplay:10.37,2013-01-25 18:33:00,
2013-01-25 13:38:00,24.6,7.7,30.21,NW,315,0.0,0.0,48,0.00,CLR,,0.00,WeatherDisplay:10.37,2013-01-25 18:38:00,
2013-01-25 13:43:00,24.6,7.7,30.24,NW,315,0.0,0.0,48,0.00,CLR,,0.00,WeatherDisplay:10.37,2013-01-25 18:43:00,
2013-01-25 13:48:00,24.8,8.3,30.24,NW,315,0.0,0.0,49,0.00,CLR,,0.00,WeatherDisplay:10.37,2013-01-25 18:48:00,
2013-01-25 13:53:00,24.4,8.9,30.24,NW,315,0.0,0.0,51,0.00,CLR,,0.00,WeatherDisplay:10.37,2013-01-25 18:53:00,
2013-01-25 13:58:00,24.8,10.1,30.24,NW,315,0.0,0.0,53,0.00,CLR,,0.00,WeatherDisplay:10.37,2013-01-25 18:58:00,
2013-01-25 14:03:00,25.0,10.7,30.24,NW,315,0.0,0.0,54,0.00,CLR,,0.00,WeatherDisplay:10.37,2013-01-25 19:03:00,
2013-01-25 14:08:00,25.3,11.8,30.24,NW,315,0.0,0.0,56,0.00,CLR,,0.00,WeatherDisplay:10.37,2013-01-25 19:08:00,
2013-01-25 14:13:00,25.2,12.0,30.24,NW,315,2.3,0.0,57,0.00,CLR,,0.00,WeatherDisplay:10.37,2013-01-25 19:13:00,
2013-01-25 14:18:00,24.8,11.7,30.24,NW,315,0.0,0.0,57,0.00,CLR,,0.00,WeatherDisplay:10.37,2013-01-25 19:18:00,
2013-01-25 14:23:00,24.4,11.4,30.24,NW,315,0.0,0.0,57,0.00,CLR,,0.00,WeatherDisplay:10.37,2013-01-25 19:23:00,
2013-01-25 14:28:00,24.6,12.3,30.21,NW,315,0.0,0.0,59,0.00,CLR,,0.00,WeatherDisplay:10.37,2013-01-25 19:28:00,
2013-01-25 14:33:00,24.8,13.2,30.21,NW,315,0.0,0.0,61,0.00,CLR,,0.00,WeatherDisplay:10.37,2013-01-25 19:33:00,
2013-01-25 14:38:00,24.8,14.0,30.21,NW,315,0.0,0.0,63,0.00,CLR,,0.00,WeatherDisplay:10.37,2013-01-25 19:38:00,
2013-01-25 14:43:00,25.0,14.5,30.18,NW,315,0.0,0.0,64,0.00,CLR,,0.00,WeatherDisplay:10.37,2013-01-25 19:43:00,
2013-01-25 14:48:00,24.6,14.9,30.18,NW,315,0.0,0.0,66,0.00,CLR,,0.00,WeatherDisplay:10.37,2013-01-25 19:48:00,
2013-01-25 14:53:00,24.6,15.6,30.18,NW,315,0.0,0.0,68,0.00,CLR,,0.00,WeatherDisplay:10.37,2013-01-25 19:53:00,
2013-01-25 14:58:00,24.6,15.9,30.18,NW,315,0.0,0.0,69,0.00,CLR,,0.00,WeatherDisplay:10.37,2013-01-25 19:58:00,
2013-01-25 15:03:00,25.0,16.9,30.18,NW,315,0.0,0.0,71,0.00,CLR,,0.00,WeatherDisplay:10.37,2013-01-25 20:03:00,
2013-01-25 15:08:00,25.2,17.4,30.18,NW,315,0.0,0.0,72,0.00,CLR,,0.00,WeatherDisplay:10.37,2013-01-25 20:08:00,
2013-01-25 15:13:00,24.6,17.2,30.18,NW,315,0.0,0.0,73,0.00,CLR,,0.00,WeatherDisplay:10.37,2013-01-25 20:13:00,
2013-01-25 15:18:00,24.8,17.7,30.18,NW,315,0.0,0.0,74,0.00,CLR,,0.00,WeatherDisplay:10.37,2013-01-25 20:18:00,
2013-01-25 15:23:00,24.6,17.5,30.18,NW,315,0.0,0.0,74,0.00,CLR,,0.00,WeatherDisplay:10.37,2013-01-25 20:23:00,
2013-01-25 15:28:00,24.6,17.8,30.15,NW,315,0.0,0.0,75,0.00,CLR,,0.00,WeatherDisplay:10.37,2013-01-25 20:28:00,
2013-01-25 15:33:00,24.4,18.0,30.15,NW,315,0.0,0.0,76,0.00,CLR,,0.00,WeatherDisplay:10.37,2013-01-25 20:33:00,
2013-01-25 15:38:00,24.4,18.3,30.15,NW,315,0.0,0.0,77,0.00,CLR,,0.00,WeatherDisplay:10.37,2013-01-25 20:38:00,
2013-01-25 15:43:00,24.4,18.3,30.15,NW,315,0.0,0.0,77,0.00,CLR,,0.00,WeatherDisplay:10.37,2013-01-25 20:43:00,
2013-01-25 15:48:00,24.4,18.6,30.15,NW,315,0.0,0.0,78,0.00,CLR,,0.00,WeatherDisplay:10.37,2013-01-25 20:48:00,
2013-01-25 15:53:00,24.6,19.0,30.15,NW,315,0.0,0.0,79,0.00,CLR,,0.00,WeatherDisplay:10.37,2013-01-25 20:53:00,
2013-01-25 15:58:00,24.8,19.5,30.15,NW,315,0.0,0.0,80,0.00,CLR,,0.00,WeatherDisplay:10.37,2013-01-25 20:58:00,
2013-01-25 16:03:00,25.0,20.0,30.15,NW,315,0.0,0.0,81,0.00,CLR,,0.00,WeatherDisplay:10.37,2013-01-25 21:03:00,
2013-01-25 16:08:00,25.2,20.4,30.15,NW,315,0.0,0.0,82,0.00,CLR,,0.00,WeatherDisplay:10.37,2013-01-25 21:08:00,
2013-01-25 16:13:00,25.2,20.4,30.15,NW,315,0.0,0.0,82,0.00,CLR,,0.00,WeatherDisplay:10.37,2013-01-25 21:13:00,
2013-01-25 16:18:00,25.3,20.9,30.15,NW,315,0.0,0.0,83,0.00,CLR,,0.00,WeatherDisplay:10.37,2013-01-25 21:18:00,
2013-01-25 16:23:00,25.2,21.0,30.15,NW,315,0.0,0.0,84,0.00,CLR,,0.00,WeatherDisplay:10.37,2013-01-25 21:23:00,
2013-01-25 16:28:00,25.3,21.2,30.15,NW,315,0.0,0.0,84,0.00,CLR,,0.00,WeatherDisplay:10.37,2013-01-25 21:28:00,
2013-01-25 16:33:00,25.3,21.2,30.15,NW,315,0.0,0.0,84,0.00,CLR,,0.00,WeatherDisplay:10.37,2013-01-25 21:33:00,
2013-01-25 16:38:00,25.5,21.6,30.15,NW,315,0.0,0.0,85,0.00,CLR,,0.00,WeatherDisplay:10.37,2013-01-25 21:38:00,
2013-01-25 16:43:00,25.9,22.0,30.12,NW,315,0.0,0.0,85,0.00,CLR,,0.00,WeatherDisplay:10.37,2013-01-25 21:43:00,
2013-01-25 16:48:00,25.9,22.3,30.12,NW,315,0.0,0.0,86,0.00,CLR,,0.00,WeatherDisplay:10.37,2013-01-25 21:48:00,
2013-01-25 16:53:00,26.1,22.4,30.12,NW,315,0.0,0.0,86,0.00,CLR,,0.00,WeatherDisplay:10.37,2013-01-25 21:53:00,
2013-01-25 16:58:00,25.9,22.3,30.15,NW,315,0.0,0.0,86,0.00,CLR,,0.00,WeatherDisplay:10.37,2013-01-25 21:58:00,
2013-01-25 17:03:00,26.1,22.4,30.15,NW,315,0.0,0.0,86,0.00,CLR,,0.00,WeatherDisplay:10.37,2013-01-25 22:03:00,
2013-01-25 17:08:00,26.1,22.4,30.15,NW,315,0.0,0.0,86,0.00,CLR,,0.00,WeatherDisplay:10.37,2013-01-25 22:08:00,
2013-01-25 17:13:00,26.1,22.4,30.12,NW,315,0.0,0.0,86,0.00,CLR,,0.00,WeatherDisplay:10.37,2013-01-25 22:13:00,
2013-01-25 17:18:00,26.1,22.4,30.12,NW,315,0.0,0.0,86,0.00,CLR,,0.00,WeatherDisplay:10.37,2013-01-25 22:18:00,
2013-01-25 17:23:00,26.1,22.7,30.12,NW,315,0.0,0.0,87,0.00,CLR,,0.00,WeatherDisplay:10.37,2013-01-25 22:23:00,
2013-01-25 17:28:00,26.2,22.9,30.12,NW,315,0.0,0.0,87,0.00,CLR,,0.00,WeatherDisplay:10.37,2013-01-25 22:28:00,
2013-01-25 17:33:00,26.4,23.1,30.12,NW,315,0.0,0.0,87,0.00,CLR,,0.00,WeatherDisplay:10.37,2013-01-25 22:33:00,
2013-01-25 17:38:00,26.4,23.1,30.12,NW,315,0.0,0.0,87,0.00,CLR,,0.00,WeatherDisplay:10.37,2013-01-25 22:38:00,
2013-01-25 17:43:00,26.4,23.1,30.12,NW,315,0.0,0.0,87,0.00,CLR,,0.00,WeatherDisplay:10.37,2013-01-25 22:43:00,
2013-01-25 17:48:00,26.4,23.3,30.12,NW,315,0.0,0.0,88,0.00,CLR,,0.00,WeatherDisplay:10.37,2013-01-25 22:48:00,
2013-01-25 17:53:00,26.2,23.2,30.12,NW,315,0.0,0.0,88,0.00,CLR,,0.00,WeatherDisplay:10.37,2013-01-25 22:53:00,
2013-01-25 17:58:00,26.2,23.2,30.12,NW,315,0.0,0.0,88,0.00,CLR,,0.00,WeatherDisplay:10.37,2013-01-25 22:58:00,
2013-01-25 18:03:00,26.1,23.0,30.12,NW,315,0.0,0.0,88,0.00,CLR,,0.00,WeatherDisplay:10.37,2013-01-25 23:03:00,
2013-01-25 18:08:00,26.1,23.0,30.12,NW,315,0.0,0.0,88,0.00,CLR,,0.00,WeatherDisplay:10.37,2013-01-25 23:08:00,
2013-01-25 18:13:00,26.1,23.0,30.12,NW,315,0.0,0.0,88,0.00,CLR,,0.00,WeatherDisplay:10.37,2013-01-25 23:13:00,
2013-01-25 18:18:00,26.1,23.3,30.12,NW,315,0.0,0.0,89,0.00,CLR,,0.00,WeatherDisplay:10.37,2013-01-25 23:18:00,
2013-01-25 18:23:00,26.1,23.3,30.12,NW,315,0.0,0.0,89,0.00,CLR,,0.00,WeatherDisplay:10.37,2013-01-25 23:23:00,
2013-01-25 18:28:00,26.2,23.4,30.12,NW,315,0.0,0.0,89,0.00,CLR,,0.00,WeatherDisplay:10.37,2013-01-25 23:28:00,
2013-01-25 18:33:00,26.2,23.4,30.12,NW,315,0.0,0.0,89,0.00,CLR,,0.00,WeatherDisplay:10.37,2013-01-25 23:33:00,
2013-01-25 18:38:00,26.2,23.7,30.12,NW,315,0.0,0.0,90,0.00,CLR,,0.00,WeatherDisplay:10.37,2013-01-25 23:38:00,
2013-01-25 18:43:00,26.4,23.9,30.12,NW,315,0.0,0.0,90,0.00,CLR,,0.00,WeatherDisplay:10.37,2013-01-25 23:43:00,
2013-01-25 18:48:00,26.4,23.9,30.12,NW,315,0.0,0.0,90,0.00,CLR,,0.00,WeatherDisplay:10.37,2013-01-25 23:48:00,
2013-01-25 18:53:00,26.4,23.9,30.12,NW,315,0.0,0.0,90,0.00,CLR,,0.00,WeatherDisplay:10.37,2013-01-25 23:53:00,
2013-01-25 18:58:00,26.4,23.9,30.12,NW,315,0.0,0.0,90,0.00,CLR,,0.00,WeatherDisplay:10.37,2013-01-25 23:58:00,
2013-01-25 19:03:00,26.4,24.1,30.12,NW,315,0.0,0.0,91,0.00,CLR,,0.00,WeatherDisplay:10.37,2013-01-26 00:03:00,
2013-01-25 19:08:00,26.6,24.3,30.12,NW,315,0.0,0.0,91,0.00,CLR,,0.00,WeatherDisplay:10.37,2013-01-26 00:08:00,
2013-01-25 19:13:00,26.6,24.3,30.12,NW,315,0.0,0.0,91,0.00,CLR,,0.00,WeatherDisplay:10.37,2013-01-26 00:13:00,
2013-01-25 19:18:00,26.6,24.3,30.12,NW,315,0.0,0.0,91,0.00,CLR,,0.00,WeatherDisplay:10.37,2013-01-26 00:18:00,
2013-01-25 19:23:00,26.8,24.5,30.12,NW,315,0.0,0.0,91,0.00,CLR,,0.00,WeatherDisplay:10.37,2013-01-26 00:23:00,
2013-01-25 19:28:00,26.8,24.5,30.12,NW,315,0.0,0.0,91,0.00,CLR,,0.00,WeatherDisplay:10.37,2013-01-26 00:28:00,
2013-01-25 19:33:00,27.0,24.7,30.12,NW,315,0.0,0.0,91,0.00,CLR,,0.00,WeatherDisplay:10.37,2013-01-26 00:33:00,
2013-01-25 19:38:00,27.0,24.9,30.12,NW,315,0.0,0.0,92,0.00,CLR,,0.00,WeatherDisplay:10.37,2013-01-26 00:38:00,
2013-01-25 19:43:00,27.0,24.9,30.12,NW,315,0.0,0.0,92,0.00,CLR,,0.00,WeatherDisplay:10.37,2013-01-26 00:43:00,
2013-01-25 19:48:00,27.1,25.1,30.12,NW,315,0.0,0.0,92,0.00,CLR,,0.00,WeatherDisplay:10.37,2013-01-26 00:48:00,
2013-01-25 19:53:00,27.1,25.1,30.12,NW,315,0.0,0.0,92,0.00,CLR,,0.00,WeatherDisplay:10.37,2013-01-26 00:53:00,
2013-01-25 19:58:00,27.1,25.4,30.09,NW,315,0.0,0.0,93,0.00,CLR,,0.00,WeatherDisplay:10.37,2013-01-26 00:58:00,
2013-01-25 20:03:00,27.3,25.6,30.09,NW,315,0.0,0.0,93,0.00,CLR,,0.00,WeatherDisplay:10.37,2013-01-26 01:03:00,
2013-01-25 20:08:00,27.3,25.6,30.09,NW,315,0.0,0.0,93,0.00,CLR,,0.00,WeatherDisplay:10.37,2013-01-26 01:08:00,
2013-01-25 20:13:00,27.3,25.6,30.09,NW,315,0.0,0.0,93,0.00,CLR,,0.00,WeatherDisplay:10.37,2013-01-26 01:13:00,
2013-01-25 20:18:00,27.3,25.6,30.09,NW,315,0.0,0.0,93,0.00,CLR,,0.00,WeatherDisplay:10.37,2013-01-26 01:18:00,
2013-01-25 20:23:00,27.3,25.6,30.09,NW,315,0.0,0.0,93,0.00,CLR,,0.00,WeatherDisplay:10.37,2013-01-26 01:23:00,
2013-01-25 20:28:00,27.5,25.7,30.09,NW,315,0.0,0.0,93,0.00,CLR,,0.00,WeatherDisplay:10.37,2013-01-26 01:28:00,
2013-01-25 20:33:00,27.3,25.6,30.09,NW,315,0.0,0.0,93,0.00,CLR,,0.00,WeatherDisplay:10.37,2013-01-26 01:33:00,
2013-01-25 20:38:00,27.3,25.6,30.09,NW,315,0.0,0.0,93,0.00,CLR,,0.00,WeatherDisplay:10.37,2013-01-26 01:38:00,
2013-01-25 20:43:00,27.3,25.6,30.09,NW,315,0.0,0.0,93,0.00,CLR,,0.00,WeatherDisplay:10.37,2013-01-26 01:43:00,
2013-01-25 20:48:00,27.3,25.6,30.09,NW,315,0.0,0.0,93,0.00,CLR,,0.00,WeatherDisplay:10.37,2013-01-26 01:48:00,
2013-01-25 20:53:00,27.3,25.6,30.09,NW,315,0.0,0.0,93,0.00,CLR,,0.00,WeatherDisplay:10.37,2013-01-26 01:53:00,
2013-01-25 20:58:00,27.3,25.6,30.09,NW,315,0.0,0.0,93,0.00,CLR,,0.00,WeatherDisplay:10.37,2013-01-26 01:58:00,
2013-01-25 21:03:00,27.1,25.4,30.09,NW,315,0.0,0.0,93,0.00,CLR,,0.00,WeatherDisplay:10.37,2013-01-26 02:03:00,
2013-01-25 21:08:00,27.1,25.4,30.09,NW,315,0.0,0.0,93,0.00,CLR,,0.00,WeatherDisplay:10.37,2013-01-26 02:08:00,
2013-01-25 21:13:00,27.1,25.4,30.09,NW,315,0.0,0.0,93,0.00,CLR,,0.00,WeatherDisplay:10.37,2013-01-26 02:13:00,
2013-01-25 21:18:00,27.1,25.4,30.09,NW,315,0.0,0.0,93,0.00,CLR,,0.00,WeatherDisplay:10.37,2013-01-26 02:18:00,
2013-01-25 21:23:00,27.3,25.6,30.09,NW,315,0.0,0.0,93,0.00,CLR,,0.00,WeatherDisplay:10.37,2013-01-26 02:23:00,
2013-01-25 21:28:00,27.3,25.6,30.09,NW,315,0.0,0.0,93,0.00,CLR,,0.00,WeatherDisplay:10.37,2013-01-26 02:28:00,
2013-01-25 21:33:00,27.3,25.6,30.09,NW,315,0.0,0.0,93,0.00,CLR,,0.00,WeatherDisplay:10.37,2013-01-26 02:33:00,
2013-01-25 21:38:00,27.3,25.6,30.09,NW,315,0.0,0.0,93,0.00,CLR,,0.00,WeatherDisplay:10.37,2013-01-26 02:38:00,
2013-01-25 21:43:00,27.3,25.6,30.09,NW,315,0.0,0.0,93,0.00,CLR,,0.00,WeatherDisplay:10.37,2013-01-26 02:43:00,
2013-01-25 21:48:00,27.3,25.6,30.09,NW,315,0.0,0.0,93,0.00,CLR,,0.00,WeatherDisplay:10.37,2013-01-26 02:48:00,
2013-01-25 21:53:00,27.3,25.6,30.09,NW,315,0.0,0.0,93,0.00,CLR,,0.00,WeatherDisplay:10.37,2013-01-26 02:53:00,
2013-01-25 21:58:00,27.3,25.6,30.09,NW,315,0.0,0.0,93,0.00,CLR,,0.00,WeatherDisplay:10.37,2013-01-26 02:58:00,
2013-01-25 22:03:00,27.3,25.8,30.09,NW,315,0.0,0.0,94,0.00,CLR,,0.00,WeatherDisplay:10.37,2013-01-26 03:03:00,
2013-01-25 22:08:00,27.3,25.8,30.09,NW,315,0.0,0.0,94,0.00,CLR,,0.00,WeatherDisplay:10.37,2013-01-26 03:08:00,
2013-01-25 22:13:00,27.3,25.8,30.09,NW,315,0.0,0.0,94,0.00,CLR,,0.00,WeatherDisplay:10.37,2013-01-26 03:13:00,
2013-01-25 22:18:00,27.3,25.8,30.09,NW,315,0.0,0.0,94,0.00,CLR,,0.00,WeatherDisplay:10.37,2013-01-26 03:18:00,
2013-01-25 22:23:00,27.3,25.8,30.09,NW,315,0.0,0.0,94,0.00,CLR,,0.00,WeatherDisplay:10.37,2013-01-26 03:23:00,
2013-01-25 22:28:00,27.3,25.6,30.09,NW,315,0.0,0.0,93,0.00,CLR,,0.00,WeatherDisplay:10.37,2013-01-26 03:28:00,
2013-01-25 22:33:00,27.3,25.6,30.09,NW,315,0.0,0.0,93,0.00,CLR,,0.00,WeatherDisplay:10.37,2013-01-26 03:33:00,
2013-01-25 22:38:00,27.1,25.4,30.09,NW,315,0.0,0.0,93,0.00,CLR,,0.00,WeatherDisplay:10.37,2013-01-26 03:38:00,
2013-01-25 22:43:00,27.3,25.6,30.09,NW,315,0.0,0.0,93,0.00,CLR,,0.00,WeatherDisplay:10.37,2013-01-26 03:43:00,
2013-01-25 22:48:00,27.1,25.4,30.09,NW,315,0.0,0.0,93,0.00,CLR,,0.00,WeatherDisplay:10.37,2013-01-26 03:48:00,
2013-01-25 22:53:00,27.1,25.4,30.09,NW,315,0.0,0.0,93,0.00,CLR,,0.00,WeatherDisplay:10.37,2013-01-26 03:53:00,
2013-01-25 22:58:00,27.1,25.4,30.09,NW,315,0.0,0.0,93,0.00,CLR,,0.00,WeatherDisplay:10.37,2013-01-26 03:58:00,
2013-01-25 23:03:00,27.1,25.4,30.09,NW,315,0.0,0.0,93,0.00,CLR,,0.00,WeatherDisplay:10.37,2013-01-26 04:03:00,
2013-01-25 23:08:00,27.1,25.4,30.09,NW,315,0.0,0.0,93,0.00,CLR,,0.00,WeatherDisplay:10.37,2013-01-26 04:08:00,
2013-01-25 23:13:00,27.1,25.1,30.09,NW,315,0.0,0.0,92,0.00,CLR,,0.00,WeatherDisplay:10.37,2013-01-26 04:13:00,
2013-01-25 23:18:00,27.0,24.9,30.09,NW,315,0.0,0.0,92,0.00,CLR,,0.00,WeatherDisplay:10.37,2013-01-26 04:18:00,
2013-01-25 23:23:00,27.0,24.9,30.09,NW,315,0.0,0.0,92,0.00,CLR,,0.00,WeatherDisplay:10.37,2013-01-26 04:23:00,
2013-01-25 23:28:00,27.0,24.9,30.09,NW,315,0.0,0.0,92,0.00,CLR,,0.00,WeatherDisplay:10.37,2013-01-26 04:28:00,
2013-01-25 23:33:00,27.0,24.9,30.09,NW,315,0.0,0.0,92,0.00,CLR,,0.00,WeatherDisplay:10.37,2013-01-26 04:33:00,
2013-01-25 23:38:00,27.0,24.9,30.09,NW,315,0.0,0.0,92,0.00,CLR,,0.00,WeatherDisplay:10.37,2013-01-26 04:38:00,
2013-01-25 23:43:00,27.0,24.9,30.09,NW,315,0.0,0.0,92,0.00,CLR,,0.00,WeatherDisplay:10.37,2013-01-26 04:43:00,
2013-01-25 23:48:00,27.0,24.9,30.09,NW,315,0.0,0.0,92,0.00,CLR,,0.00,WeatherDisplay:10.37,2013-01-26 04:48:00,
2013-01-25 23:53:00,27.0,24.9,30.09,NW,315,0.0,0.0,92,0.00,CLR,,0.00,WeatherDisplay:10.37,2013-01-26 04:53:00,
2013-01-25 23:58:00,27.0,24.9,30.06,NW,315,0.0,0.0,92,0.00,CLR,,0.00,WeatherDisplay:10.37,2013-01-26 04:58:00,